CAPE
4 1 2 6 9 2 0 0 0 0 0 0 0 0 0 0 0 0 0 0 0 0 7 4 0 0 0 0 0 0 0 0 0 0 0 0 0 0 0 0 0 0 0 0 0 0 0
4 3 1 4 5 6 3 0 0 0 0 0 0 0 0 0 0 0 0 0 0 0 0 0 0 0 0 0 0 0 0 0 0 0 0 0 0 0 0 0 0 0 0 0 0 0 0
2 2 3 4 2 3 5 3 0 0 0 0 0 0 0 0 0 0 0 0 0 0 0 0 0 0 0 0 0 0 0 0 0 0 0 0 0 0 0 0 0 0 0 0 0 0 0
1 1 3 1 4 2 6 3 1 0 0 0 0 0 0 0 0 0 0 0 0 0 0 0 0 0 0 0 0 0 0 0 0 0 0 0 0 0 0 0 0 0 0 0 0 0 0
3 0 2 0 0 1 2 3 2 0 0 0 0 0 0 0 0 0 0 0 0 0 0 0 0 0 0 0 0 0 0 0 0 0 0 0 0 0 0 0 0 0 0 0 0 0 0
0 1 2 2 2 2 2 3 1 0 0 0 0 0 0 0 0 0 0 0 0 0 0 0 0 0 0 5 0 0 0 0 0 0 0 0 0 0 0 0 0 0 0 0 0 0 0
1 1 0 0 1 2 2 1 1 0 0 0 0 0 0 0 0 0 0 0 0 0 0 0 0 0 0 0 0 0 0 0 0 0 0 0 0 0 0 0 0 0 0 0 0 0 0
6 1 1 0 0 2 2 1 2 1 0 0 0 0 0 0 0 0 0 0 0 0 0 0 0 0 0 0 0 0 0 0 0 0 0 0 0 0 0 0 0 0 0 0 0 0 0
7 3 3 3 4 3 3 2 1 1 1 0 0 0 0 0 0 0 0 0 0 0 0 0 0 0 0 0 0 0 0 0 0 0 0 0 0 0 0 0 0 0 0 0 0 0 0
1 2 1 2 1 1 2 2 2 2 0 0 0 0 0 0 0 0 0 0 0 0 0 0 0 0 0 0 0 0 0 0 0 0 0 0 0 0 0 0 0 0 0 0 0 0 0
6 1 3 0 0 0 1 4 2 2 0 0 0 0 0 0 0 0 0 0 0 0 0 0 0 0 0 0 0 0 0 0 0 0 0 0 0 0 0 0 0 0 0 0 0 0 0
4 4 0 0 0 0 0 2 2 3 2 0 0 0 0 0 0 0 0 0 0 0 0 0 0 0 0 0 0 0 0 0 0 0 0 0 0 0 0 0 0 0 0 0 0 0 0
3 1 0 0 0 0 0 1 2 0 0 0 0 0 0 0 0 0 0 0 0 0 0 0 0 0 0 0 0 0 0 0 0 0 0 0 0 0 0 0 0 0 0 0 0 0 0
1 0 0 0 0 0 0 3 3 1 1 0 0 0 0 0 0 0 0 0 0 0 0 0 0 0 0 0 0 0 0 0 0 0 0 0 0 0 0 0 0 0 0 0 0 0 0
5 7 4 2 0 0 0 0 2 2 0 0 0 0 0 0 0 0 0 0 0 0 0 0 0 0 0 0 0 0 0 0 0 0 0 0 0 0 0 0 0 0 0 0 0 0 0
5 4 7 7 4 2 1 0 0 0 0 0 0 0 0 0 0 0 0 0 0 0 0 0 0 0 0 0 0 0 0 0 0 0 0 0 0 0 0 0 0 0 0 0 0 0 0
7 1 6 7 4 3 1 2 1 0 0 0 0 0 0 0 0 0 0 0 0 0 0 0 0 0 0 0 0 0 0 0 0 0 0 0 0 0 0 0 0 0 0 0 0 0 0
9 0 2 4 1 2 1 1 1 0 0 0 0 0 0 0 0 0 0 0 0 0 0 0 0 0 0 0 0 0 0 0 0 0 0 0 0 0 0 0 0 0 0 0 0 0 0
5 2 3 2 2 1 0 0 0 0 0 0 0 0 0 0 0 0 0 0 0 0 0 0 0 0 0 0 0 0 0 0 0 0 0 0 0 0 0 0 0 0 0 0 0 0 0
0 2 3 2 4 2 1 0 0 0 0 0 0 0 0 0 0 0 0 0 0 0 0 0 0 0 0 0 0 0 0 0 0 0 0 0 0 0 0 0 0 0 0 0 0 0 0
0 1 3 5 3 1 1 0 0 0 0 0 0 0 0 0 0 0 0 0 0 0 0 0 0 0 0 0 0 0 0 0 0 0 0 0 0 0 0 0 0 0 0 0 0 0 0
1 3 5 3 0 2 1 1 0 0 0 0 0 0 0 0 0 0 0 0 0 0 0 0 0 0 0 0 0 0 0 0 0 0 0 0 0 0 0 0 0 0 0 0 0 0 0
1 5 8 5 1 3 1 3 0 0 0 0 0 0 0 0 0 0 0 0 0 0 0 0 0 0 0 0 0 0 0 0 0 0 0 0 0 0 0 0 0 0 0 0 0 0 0
12 6 7 10 6 4 3 4 2 0 0 0 0 0 0 0 0 0 0 0 0 0 0 0 0 0 0 0 0 0 0 0 0 0 0 0 0 0 0 0 0 0 0 0 0 0 0
10 6 3 4 2 2 1 0 0 0 0 0 0 0 0 0 0 0 0 0 0 0 0 0 0 0 0 0 0 0 0 0 0 0 0 0 0 0 0 0 0 0 0 0 0 0 0
8 9 11 5 2 0 0 0 0 0 0 0 0 0 0 0 0 0 0 0 0 0 0 0 0 0 0 0 0 0 0 0 0 0 0 0 0 0 0 0 0 0 0 0 0 0 0
8 9 15 12 11 7 5 0 0 0 0 0 0 0 0 0 0 0 0 0 0 0 0 0 0 0 0 0 0 0 0 0 0 0 0 0 0 0 0 0 0 0 0 0 0 0 0
15 18 19 17 12 8 15 13 6 5 3 0 0 0 0 1 0 0 0 0 0 0 0 0 0 0 0 0 0 0 0 0 0 0 0 0 0 0 0 0 0 0 0 0 0 0 0
8 6 8 11 21 16 13 19 21 18 23 23 0 0 0 0 0 1 0 0 0 0 0 0 0 0 0 0 0 0 0 0 0 0 0 0 0 0 0 0 0 0 0 0 0 0 2
CIN
-1 0 0 0 0 0 0 0 0 0 0 0 0 0 0 0 0 0 0 0 0 0 -58 -97 0 0 0 0 0 0 0 0 0 0 0 0 0 0 0 0 0 0 0 0 0 0 0
0 0 -1 0 0 0 0 0 0 0 0 0 0 0 0 0 0 0 0 0 0 0 0 0 0 0 0 0 0 0 0 0 0 0 0 0 0 0 0 0 0 0 0 0 0 0 0
0 -1 0 0 -1 0 0 0 0 0 0 0 0 0 0 0 0 0 0 0 0 0 0 0 0 0 0 0 0 0 0 0 0 0 0 0 0 0 0 0 0 0 0 0 0 0 0
0 0 0 0 -1 -1 0 0 0 0 0 0 0 0 0 0 0 0 0 0 0 0 0 0 0 0 0 0 0 0 0 0 0 0 0 0 0 0 0 0 0 0 0 0 0 0 0
0 0 0 0 0 0 0 0 0 0 0 0 0 0 0 0 0 0 0 0 0 0 0 0 0 0 0 0 0 0 0 0 0 0 0 0 0 0 0 0 0 0 0 0 0 0 0
0 0 0 0 0 0 0 0 0 0 0 0 0 0 0 0 0 0 0 0 0 0 0 0 0 0 0 -24 0 0 0 0 0 0 0 0 0 0 0 0 0 0 0 0 0 0 0
0 -1 0 0 0 0 0 0 0 0 0 0 0 0 0 0 0 0 0 0 0 0 0 0 0 0 0 0 0 0 0 0 0 0 0 0 0 0 0 0 0 0 0 0 0 0 0
-1 0 -1 0 -1 0 0 0 0 0 0 0 0 0 0 0 0 0 0 0 0 0 0 0 0 0 0 0 0 0 0 0 0 0 0 0 0 0 0 0 0 0 0 0 0 0 0
-1 -1 0 0 0 0 0 0 0 0 0 0 0 0 0 0 0 0 0 0 0 0 0 0 0 0 0 0 0 0 0 0 0 0 0 0 0 0 0 0 0 0 0 0 0 0 0
0 -1 0 0 0 0 0 0 0 0 0 0 0 0 0 0 0 0 0 0 0 0 0 0 0 0 0 0 0 0 0 0 0 0 0 0 0 0 0 0 0 0 0 0 0 0 0
0 0 0 0 0 0 0 0 0 0 0 0 0 0 0 0 0 0 0 0 0 0 0 0 0 0 0 0 0 0 0 0 0 0 0 0 0 0 0 0 0 0 0 0 0 0 0
0 0 0 0 0 0 0 0 0 0 0 0 0 0 0 0 0 0 0 0 0 0 0 0 0 0 0 0 0 0 0 0 0 0 0 0 0 0 0 0 0 0 0 0 0 0 0
0 0 0 0 0 0 0 0 0 0 0 0 0 0 0 0 0 0 0 0 0 0 0 0 0 0 0 0 0 0 0 0 0 0 0 0 0 0 0 0 0 0 0 0 0 0 0
0 0 0 0 0 0 0 0 0 0 0 0 0 0 0 0 0 0 0 0 0 0 0 0 0 0 0 0 0 0 0 0 0 0 0 0 0 0 0 0 0 0 0 0 0 0 0
0 0 0 0 0 0 0 0 0 0 0 0 0 0 0 0 0 0 0 0 0 0 0 0 0 0 0 0 0 0 0 0 0 0 0 0 0 0 0 0 0 0 0 0 0 0 0
-6 0 0 0 0 0 0 0 0 0 0 0 0 0 0 0 0 0 0 0 0 0 0 0 0 0 0 0 0 0 0 0 0 0 0 0 0 0 0 0 0 0 0 0 0 0 0
-7 0 0 0 0 0 0 0 0 0 0 0 0 0 0 0 0 0 0 0 0 0 0 0 0 0 0 0 0 0 0 0 0 0 0 0 0 0 0 0 0 0 0 0 0 0 0
-10 0 0 0 0 0 0 0 0 0 0 0 0 0 0 0 0 0 0 0 0 0 0 0 0 0 0 0 0 0 0 0 0 0 0 0 0 0 0 0 0 0 0 0 0 0 0
-15 0 0 0 0 0 0 0 0 0 0 0 0 0 0 0 0 0 0 0 0 0 0 0 0 0 0 0 0 0 0 0 0 0 0 0 0 0 0 0 0 0 0 0 0 0 0
0 0 0 0 0 0 0 0 0 0 0 0 0 0 0 0 0 0 0 0 0 0 0 0 0 0 0 0 0 0 0 0 0 0 0 0 0 0 0 0 0 0 0 0 0 0 0
0 0 0 0 0 0 0 0 0 0 0 0 0 0 0 0 0 0 0 0 0 0 0 0 0 0 0 0 0 0 0 0 0 0 0 0 0 0 0 0 0 0 0 0 0 0 0
0 -1 0 0 0 0 0 0 0 0 0 0 0 0 0 0 0 0 0 0 0 0 0 0 0 0 0 0 0 0 0 0 0 0 0 0 0 0 0 0 0 0 0 0 0 0 0
0 0 0 0 -3 0 0 0 0 0 0 0 0 0 0 0 0 0 0 0 0 0 0 0 0 0 0 0 0 0 0 0 0 0 0 0 0 0 0 0 0 0 0 0 0 0 0
0 0 0 0 0 0 0 0 0 0 0 0 0 0 0 0 0 0 0 0 0 0 0 0 0 0 0 0 0 0 0 0 0 0 0 0 0 0 0 0 0 0 0 0 0 0 0
0 0 0 0 0 0 0 0 0 0 0 0 0 0 0 0 0 0 0 0 0 0 0 0 0 0 0 0 0 0 0 0 0 0 0 0 0 0 0 0 0 0 0 0 0 0 0
0 0 0 0 0 0 0 0 0 0 0 0 0 0 0 0 0 0 0 0 0 0 0 0 0 0 0 0 0 0 0 0 0 0 0 0 0 0 0 0 0 0 0 0 0 0 0
0 0 0 0 0 0 0 0 0 0 0 0 0 0 0 0 0 0 0 0 0 0 0 0 0 0 0 0 0 0 0 0 0 0 0 0 0 0 0 0 0 0 0 0 0 0 0
0 0 0 0 0 0 0 0 -2 -8 -8 0 0 0 0 0 0 0 0 0 0 0 0 0 0 0 0 0 0 0 0 0 0 0 0 0 0 0 0 0 0 0 0 0 0 0 0
0 0 0 -1 0 0 0 0 0 -1 -4 -13 0 0 0 0 0 -2 0 0 0 0 0 0 0 0 0 0 0 0 0 0 0 0 0 0 0 0 0 0 0 0 0 0 0 0 0
Wind_Speed
23 22 22 8 19 19 19 18 18 18 18 20 19 15 13 13 16 18 17 17 20 19 15 18 18 18 18 22 28 23 22 22 21 22 26 29 31 31 36 33 29 31 27 25 23 22 21
22 21 16 14 12 17 16 16 16 16 17 18 20 16 13 12 13 15 14 12 10 11 15 16 16 15 16 20 17 19 22 22 21 23 25 27 31 29 30 31 32 29 25 25 24 23 22
21 21 21 7 4 11 12 12 13 13 14 16 17 15 12 10 10 9 8 8 11 13 13 13 12 12 14 10 17 20 20 21 21 22 24 26 24 28 25 28 26 24 28 25 25 25 23
21 20 19 19 4 4 7 8 9 10 11 13 13 13 11 10 9 8 9 10 11 13 15 14 16 11 16 16 17 19 18 18 20 21 23 23 23 25 24 22 24 28 27 32 27 25 24
21 21 21 19 19 11 5 5 4 7 9 11 10 11 12 12 10 10 10 11 15 17 18 20 17 8 15 15 6 18 16 18 19 20 21 19 20 24 23 28 29 30 34 33 29 24 25
22 22 23 22 18 17 12 6 3 3 5 8 9 9 11 11 9 10 11 18 20 21 20 17 13 13 13 16 15 16 17 16 18 17 17 21 22 27 26 31 41 37 34 30 31 26 26
23 24 24 24 23 20 19 17 6 3 5 6 8 8 8 10 11 11 17 19 17 16 16 14 15 15 15 13 14 14 14 11 17 19 23 22 27 33 31 28 26 28 31 31 28 24 26
23 24 25 26 20 18 20 20 10 3 4 5 7 9 10 9 11 14 15 15 14 15 12 14 14 13 11 14 14 15 12 13 19 22 21 23 28 25 23 24 26 26 30 30 26 25 26
23 23 24 25 24 3 4 7 8 5 4 5 5 6 8 9 12 15 14 14 15 15 12 12 13 13 13 14 6 14 12 11 16 20 23 24 23 22 23 23 26 26 29 28 28 24 24
22 23 24 24 25 15 6 2 3 5 5 5 6 6 7 9 14 16 16 16 15 14 11 12 13 13 14 10 11 12 12 13 14 18 17 18 19 21 21 24 24 29 23 22 23 24 30
21 22 22 22 20 19 15 9 4 3 6 6 6 7 7 12 14 13 15 15 14 13 16 12 13 13 13 18 18 16 15 13 13 16 19 21 20 19 20 22 21 24 20 20 21 24 27
21 22 22 22 21 18 16 13 10 5 5 7 9 9 10 12 13 14 15 16 14 16 18 14 13 13 16 16 13 20 20 14 16 15 11 16 16 16 18 16 17 13 17 19 21 23 31
21 22 22 23 23 22 20 18 16 10 7 8 12 15 16 15 14 15 16 16 18 19 15 16 15 15 17 16 20 26 27 28 16 19 17 16 17 17 16 16 17 18 19 25 28 28 30
22 23 23 24 24 25 25 24 23 20 12 12 16 19 19 18 16 16 17 19 20 18 18 17 17 17 18 19 17 23 25 27 23 21 21 18 20 19 18 19 20 20 21 24 28 27 26
23 24 24 25 26 27 27 27 27 25 21 16 17 18 19 17 16 17 18 19 19 18 18 20 19 19 18 18 17 21 25 26 24 24 23 21 19 19 18 19 19 20 23 20 23 26 32
25 25 26 27 27 28 29 29 29 27 23 14 14 15 17 16 17 18 18 17 16 16 18 17 19 19 19 19 20 21 23 21 23 22 20 24 21 22 21 21 19 22 16 23 24 29 31
26 27 27 27 28 29 30 30 30 30 26 16 14 13 14 15 16 16 16 16 15 15 15 16 18 19 18 20 20 21 22 20 22 21 20 21 22 21 20 22 21 20 23 22 21 24 28
27 27 28 28 28 29 30 31 31 32 29 18 16 14 16 14 13 13 13 13 14 14 14 14 15 17 18 18 19 19 20 19 23 22 23 21 18 20 22 20 20 21 22 21 26 27 26
27 28 28 29 29 29 31 32 32 32 29 21 18 17 16 14 13 11 11 12 11 12 12 13 13 13 15 16 16 17 18 19 22 20 13 9 19 19 20 21 21 22 21 21 21 24 29
27 28 29 29 29 31 31 32 33 34 31 22 20 21 18 16 16 14 12 10 10 9 10 11 11 12 12 12 12 12 11 11 9 12 13 12 16 20 21 20 17 21 21 21 23 29 31
28 28 29 29 30 31 33 34 35 35 33 23 22 22 21 21 20 18 15 13 11 11 11 9 12 7 8 10 10 10 11 12 13 12 14 16 24 22 27 26 25 28 29 24 26 31 34
28 28 27 29 31 33 34 34 34 35 33 23 27 26 24 25 22 21 21 21 18 18 13 14 13 11 9 13 11 11 8 11 14 14 16 19 25 24 32 30 31 37 36 31 31 35 39
30 30 31 32 33 34 34 34 34 34 29 26 25 24 26 27 26 25 25 25 23 20 19 20 15 16 16 16 18 19 15 18 16 15 13 19 23 27 35 29 32 41 36 30 31 30 31
30 31 33 34 34 33 33 33 33 32 29 26 26 27 30 34 30 28 27 26 26 24 25 22 19 20 19 15 17 20 22 23 23 21 20 22 23 27 38 35 44 34 26 28 28 31 28
32 32 33 33 33 34 34 34 33 32 32 28 26 28 31 37 33 34 32 30 28 26 26 26 23 22 17 22 28 31 30 30 28 28 26 25 25 34 39 40 46 43 35 33 34 37 29
34 35 34 34 34 34 33 34 34 34 33 29 26 27 30 36 38 34 34 31 33 32 31 28 24 21 22 26 29 36 37 33 33 29 26 23 26 30 35 44 50 37 28 27 27 41 24
35 35 35 34 34 34 34 33 33 33 34 32 28 27 30 38 35 32 35 33 29 31 33 29 27 27 25 31 35 38 41 33 39 39 36 33 33 37 40 46 46 34 29 26 38 37 20
34 35 35 35 35 35 34 33 32 32 32 30 31 28 31 38 39 34 32 35 34 34 37 31 31 31 31 36 37 38 41 37 40 37 37 37 37 41 39 44 50 30 26 32 26 21 20
35 35 35 35 35 35 34 34 33 32 30 29 31 29 29 34 39 33 34 33 34 34 36 34 36 32 30 34 35 35 40 38 39 47 34 43 37 38 33 34 24 23 21 18 20 21 23
Wind_Direction
25 35 29 114 52 53 55 58 60 64 64 55 49 60 70 71 52 40 41 36 341 320 333 286 296 308 308 292 272 285 283 273 259 250 243 238 233 233 233 236 238 243 249 253 259 264 267
18 35 59 67 79 55 61 61 65 68 65 59 55 65 79 83 71 59 62 89 158 163 316 328 325 335 321 301 307 291 286 266 255 245 242 238 235 235 238 237 237 244 249 252 257 261 267
19 32 30 109 156 76 73 71 71 70 68 64 59 66 80 87 84 92 109 140 200 186 163 0 354 350 330 157 315 292 287 258 250 242 238 238 238 233 240 235 239 244 244 253 256 260 265
19 26 37 37 142 160 91 83 77 74 69 64 66 67 76 85 96 113 120 126 142 159 167 165 129 16 285 337 311 277 283 255 249 241 241 236 236 233 240 237 239 239 245 244 254 259 265
15 13 24 34 32 64 108 94 101 80 74 67 72 72 71 78 101 122 131 132 128 122 112 113 88 167 156 340 2 282 278 251 243 236 236 230 232 230 235 229 232 238 239 243 252 260 264
357 8 7 16 35 37 56 80 123 117 93 80 76 81 78 86 118 126 129 107 111 107 117 136 176 224 129 203 42 276 267 254 235 221 222 225 230 227 230 227 227 232 238 247 250 260 263
348 347 359 3 13 25 27 33 82 122 107 99 86 89 91 88 100 121 98 96 116 123 134 128 129 102 139 198 335 250 253 253 225 222 220 222 224 223 227 232 241 241 242 247 255 263 266
347 346 349 355 33 40 34 31 63 130 132 126 107 93 93 96 95 92 94 103 100 94 122 112 132 153 97 88 86 223 263 248 223 217 220 221 225 231 236 238 240 243 243 248 258 264 269
341 345 347 348 327 201 119 88 84 111 155 150 159 131 106 97 96 101 114 110 86 92 122 130 126 163 142 42 127 228 275 250 223 219 221 221 229 235 236 238 239 244 246 249 257 264 274
336 340 342 336 334 290 256 197 168 117 122 149 163 154 134 109 104 97 107 100 93 91 125 159 137 136 109 189 62 258 259 243 231 216 221 228 236 235 236 239 243 242 253 256 259 263 266
334 335 327 319 312 308 292 275 238 163 129 134 148 150 143 112 106 116 111 122 116 117 91 137 139 149 126 56 252 217 246 243 225 219 228 229 232 235 238 242 246 246 252 258 264 267 273
332 328 327 322 317 304 298 289 276 241 163 133 123 129 123 121 115 117 115 119 123 91 88 117 179 156 154 131 176 237 214 229 216 223 238 233 241 246 244 249 249 246 253 264 270 273 270
328 329 327 322 320 314 308 304 295 270 216 153 119 100 98 104 107 124 124 118 89 86 104 105 120 154 146 161 123 145 172 172 218 214 224 232 240 250 247 245 250 253 253 257 263 265 271
323 325 324 323 321 320 318 316 314 305 259 142 105 87 83 95 112 119 117 99 83 94 97 115 121 132 131 124 173 155 163 190 215 220 219 226 231 236 247 249 251 253 257 259 263 268 280
321 320 322 321 321 321 323 323 322 320 319 62 73 69 69 87 103 107 100 79 82 95 108 103 110 110 121 139 197 188 160 166 214 219 223 229 238 245 252 254 258 259 261 272 276 281 282
321 319 319 320 321 322 322 324 326 325 321 21 33 41 48 72 82 79 74 75 90 109 105 110 100 109 112 124 138 159 161 212 209 225 238 227 239 243 251 257 268 265 269 272 276 277 280
318 317 317 320 321 322 322 323 325 326 324 348 0 16 28 31 47 51 51 67 84 108 109 109 101 102 109 113 126 142 160 192 213 226 237 233 238 249 256 259 264 266 269 277 282 283 285
317 317 317 319 322 322 323 324 324 325 323 335 339 346 346 359 18 29 37 52 64 77 93 100 107 105 106 115 116 122 140 159 182 206 217 238 251 258 263 270 274 274 276 277 279 284 289
318 318 318 318 319 322 323 323 324 324 325 325 321 325 332 339 344 356 12 22 38 47 61 64 78 95 95 105 101 115 132 167 176 144 107 291 258 265 272 276 279 279 281 284 289 292 289
319 319 318 319 321 320 320 321 322 322 322 319 313 311 316 319 324 329 337 345 357 14 17 25 34 40 46 56 56 86 54 53 0 309 293 302 288 279 283 288 295 289 290 289 289 290 292
316 317 319 320 319 319 319 319 319 319 319 314 308 304 307 306 308 310 316 326 328 332 336 348 346 359 11 4 1 359 347 329 323 331 319 313 286 291 285 290 292 289 291 291 286 290 291
315 316 318 320 319 317 316 317 319 318 315 307 298 299 303 298 300 299 301 303 302 309 315 316 317 325 322 323 328 329 333 325 320 316 309 306 299 300 290 294 292 287 290 292 290 292 292
313 314 316 317 318 317 316 316 316 318 315 303 302 301 297 293 293 292 292 295 299 299 302 306 307 309 305 305 308 311 311 311 311 311 306 307 305 304 295 303 300 291 295 294 297 298 300
320 317 313 312 314 315 317 317 315 316 316 301 298 297 290 286 286 286 292 293 292 292 295 301 300 299 308 318 317 310 304 300 298 296 299 301 302 301 296 300 291 303 310 307 301 304 301
321 322 320 318 317 312 312 313 316 315 312 301 297 292 288 283 284 284 285 287 289 291 290 291 294 300 303 303 299 296 296 296 295 293 289 293 295 296 293 292 294 298 302 303 303 304 306
318 316 317 317 316 316 317 312 311 310 312 306 296 295 287 283 280 283 283 284 284 284 286 287 294 297 297 294 292 287 287 291 292 296 303 292 292 290 294 294 293 304 311 314 314 299 313
318 317 316 316 316 315 315 314 314 312 310 303 293 301 287 280 282 284 280 282 285 284 284 287 288 287 289 286 284 284 285 290 286 286 289 290 290 283 287 291 295 302 306 311 298 303 314
324 321 318 315 313 313 313 314 314 312 314 308 295 300 290 281 281 282 284 281 283 283 280 286 287 284 285 281 282 284 284 284 286 288 286 285 287 287 289 289 291 305 303 295 307 315 314
321 321 320 319 317 315 311 310 311 312 313 311 298 304 302 282 280 289 285 285 283 282 281 280 280 285 286 284 284 287 285 287 286 285 289 285 286 288 287 292 303 313 312 320 319 312 311